Location: Codford Saint Peter
(51.1597°N, 2.0531°W)
Time: 22:32:50
(UTC+00:00)

Cosmos 2278 Rocket - Pass Details

Date: 18 September 2020
Orbit: 841 x 845 km, 71.0° (Epoch: 20 October)

Event Time Altitude Azimuth Distance (km) Brightness Sun altitude
Exits shadow 23:04:24 36° 354° (N) 1,317 3.5 -36.0°
Drops below altitude 10° 23:08:08 10° 23° (NNE) 2,472 5.1 -36.2°
Sets 23:10:42 0° 29° (NNE) 3,411 5.9 -36.3°
